Stündliche Wetter Kyshen'ky

Heute, 19 Januar, Dienstag

Zeit Temperatur Niederschläge Wind Luftdruck Luftfeuchtigkeit
00:00 -17°C° 0 mm 2 m/S 757 mmHg 95%
01:00 -18°C° 0 mm 3 m/S 757 mmHg 95%
02:00 -18°C° 0 mm 3 m/S 757 mmHg 95%
03:00 -18°C° 0 mm 3 m/S 757 mmHg 95%
04:00 -18°C° 0 mm 3 m/S 757 mmHg 94%
05:00 -17°C° 0 mm 3 m/S 758 mmHg 94%
06:00 -17°C° 0 mm 3 m/S 758 mmHg 94%
07:00 -17°C° 0 mm 3 m/S 758 mmHg 94%
08:00 -17°C° 0 mm 3 m/S 758 mmHg 94%
09:00 -16°C° 0 mm 3 m/S 758 mmHg 92%
10:00 -16°C° 0 mm 3 m/S 759 mmHg 90%
11:00 -15°C° 0 mm 3 m/S 759 mmHg 88%
12:00 -15°C° 0 mm 3 m/S 759 mmHg 87%
13:00 -15°C° 0 mm 3 m/S 758 mmHg 86%
14:00 -15°C° 0 mm 3 m/S 758 mmHg 85%
15:00 -16°C° 0 mm 3 m/S 758 mmHg 88%
16:00 -16°C° 0 mm 2 m/S 759 mmHg 90%
17:00 -17°C° 0 mm 2 m/S 759 mmHg 92%
18:00 -17°C° 0 mm 2 m/S 759 mmHg 92%
19:00 -17°C° 0 mm 2 m/S 760 mmHg 93%
20:00 -16°C° 0 mm 1 m/S 760 mmHg 93%
21:00 -16°C° 0 mm 1 m/S 760 mmHg 93%
22:00 -16°C° 0 mm 1 m/S 760 mmHg 93%
23:00 -16°C° 0 mm 1 m/S 760 mmHg 93%

Morgen, 20 Januar, Mittwoch

Zeit Temperatur Niederschläge Wind Luftdruck Luftfeuchtigkeit
00:00 -16°C° 0 mm 1 m/S 761 mmHg 93%
01:00 -17°C° 0 mm 1 m/S 761 mmHg 93%
02:00 -17°C° 0 mm 1 m/S 761 mmHg 93%
03:00 -17°C° 0 mm 1 m/S 761 mmHg 93%
04:00 -17°C° 0 mm 1 m/S 761 mmHg 93%
05:00 -17°C° 0 mm 1 m/S 761 mmHg 93%
06:00 -17°C° 0 mm 1 m/S 762 mmHg 93%
07:00 -17°C° 0 mm 1 m/S 762 mmHg 93%
08:00 -17°C° 0 mm 1 m/S 762 mmHg 92%
09:00 -15°C° 0 mm 1 m/S 762 mmHg 90%
10:00 -14°C° 0 mm 1 m/S 763 mmHg 87%
11:00 -12°C° 0 mm 1 m/S 763 mmHg 84%
12:00 -14°C° 0 mm 2 m/S 763 mmHg 84%
13:00 -13°C° 0 mm 2 m/S 763 mmHg 84%
14:00 -13°C° 0 mm 2 m/S 762 mmHg 84%
15:00 -14°C° 0 mm 2 m/S 763 mmHg 86%
16:00 -15°C° 0 mm 2 m/S 763 mmHg 87%
17:00 -15°C° 0 mm 2 m/S 763 mmHg 89%
18:00 -16°C° 0 mm 2 m/S 763 mmHg 89%
19:00 -16°C° 0 mm 2 m/S 763 mmHg 89%
20:00 -17°C° 0 mm 3 m/S 763 mmHg 90%
21:00 -17°C° 0 mm 3 m/S 763 mmHg 90%
22:00 -17°C° 0 mm 3 m/S 763 mmHg 90%
23:00 -17°C° 0 mm 3 m/S 764 mmHg 91%

übermorgen, 21 Januar, Donnerstag

Zeit Temperatur Niederschläge Wind Luftdruck Luftfeuchtigkeit
00:00 -17°C° 0 mm 3 m/S 763 mmHg 91%
01:00 -17°C° 0 mm 3 m/S 763 mmHg 91%
02:00 -16°C° 0 mm 3 m/S 763 mmHg 91%
03:00 -16°C° 0 mm 3 m/S 763 mmHg 92%
04:00 -16°C° 0 mm 4 m/S 763 mmHg 92%
05:00 -16°C° 0 mm 4 m/S 762 mmHg 92%
06:00 -15°C° 0 mm 4 m/S 762 mmHg 93%
07:00 -14°C° 0 mm 4 m/S 762 mmHg 94%
08:00 -12°C° 0 mm 4 m/S 762 mmHg 95%
09:00 -11°C° 0 mm 5 m/S 762 mmHg 94%
10:00 -8°C° 0 mm 5 m/S 762 mmHg 94%
11:00 -5°C° 0 mm 6 m/S 762 mmHg 94%
12:00 -5°C° 0 mm 6 m/S 761 mmHg 94%
13:00 -4°C° 0 mm 5 m/S 761 mmHg 94%
14:00 -2°C° 0 mm 5 m/S 761 mmHg 93%
15:00 -2°C° 0 mm 5 m/S 760 mmHg 94%
16:00 -1°C° 0 mm 5 m/S 760 mmHg 94%
17:00 -1°C° 0 mm 4 m/S 760 mmHg 94%
18:00 -1°C° 0 mm 4 m/S 760 mmHg 94%
19:00 -1°C° 0 mm 4 m/S 760 mmHg 94%
20:00 -1°C° 0 mm 4 m/S 760 mmHg 93%
21:00 -2°C° 0 mm 4 m/S 759 mmHg 94%
22:00 -2°C° 0 mm 4 m/S 759 mmHg 94%
23:00 -2°C° 0 mm 4 m/S 759 mmHg 95%

22 Januar, Freitag

Zeit Temperatur Niederschläge Wind Luftdruck Luftfeuchtigkeit
00:00 -3°C° 0 mm 4 m/S 759 mmHg 94%
01:00 -3°C° 0 mm 4 m/S 759 mmHg 94%
02:00 -3°C° 0 mm 4 m/S 759 mmHg 93%
03:00 -4°C° 0 mm 5 m/S 759 mmHg 94%
04:00 -2°C° 0 mm 5 m/S 758 mmHg 94%
05:00 -2°C° 0 mm 5 m/S 758 mmHg 94%
06:00 -1°C° 0 mm 5 m/S 758 mmHg 95%
07:00 -2°C° 0 mm 6 m/S 758 mmHg 96%
08:00 -1°C° 0 mm 6 m/S 758 mmHg 97%
09:00 -1°C° 0 mm 6 m/S 758 mmHg 98%
10:00 -1°C° 0 mm 6 m/S 758 mmHg 99%
11:00 +1°C° 0 mm 6 m/S 758 mmHg 99%
12:00 +1°C° 0 mm 6 m/S 757 mmHg 99%
13:00 +1°C° 0 mm 6 m/S 757 mmHg 99%
14:00 +1°C° 0 mm 6 m/S 757 mmHg 99%
15:00 +1°C° 0 mm 5 m/S 757 mmHg 98%
16:00 +1°C° 0 mm 5 m/S 756 mmHg 96%
17:00 +1°C° 0 mm 4 m/S 756 mmHg 95%
18:00 +1°C° 0 mm 5 m/S 756 mmHg 95%
19:00 +1°C° 0 mm 5 m/S 756 mmHg 95%
20:00 +1°C° 0 mm 6 m/S 756 mmHg 94%
21:00 +1°C° 0 mm 6 m/S 756 mmHg 95%
22:00 +1°C° 0 mm 6 m/S 756 mmHg 95%
23:00 +2°C° 0 mm 6 m/S 755 mmHg 96%

23 Januar, Samstag

Zeit Temperatur Niederschläge Wind Luftdruck Luftfeuchtigkeit
00:00 +2°C° 0 mm 6 m/S 755 mmHg 96%
01:00 +2°C° 0 mm 6 m/S 755 mmHg 96%
02:00 +2°C° 0 mm 6 m/S 755 mmHg 96%
03:00 +2°C° 0 mm 6 m/S 755 mmHg 96%
04:00 +2°C° 0 mm 5 m/S 755 mmHg 96%
05:00 +2°C° 0 mm 5 m/S 754 mmHg 96%
06:00 +2°C° 0 mm 5 m/S 755 mmHg 96%
07:00 +2°C° 0 mm 5 m/S 755 mmHg 96%
08:00 +2°C° 0 mm 5 m/S 755 mmHg 96%
09:00 +3°C° 0 mm 5 m/S 755 mmHg 95%
10:00 +3°C° 0 mm 6 m/S 754 mmHg 95%
11:00 +3°C° 0 mm 6 m/S 754 mmHg 95%
12:00 +4°C° 0 mm 6 m/S 754 mmHg 94%
13:00 +4°C° 0 mm 6 m/S 754 mmHg 94%
14:00 +4°C° 0 mm 6 m/S 753 mmHg 93%
15:00 +4°C° 0 mm 6 m/S 753 mmHg 94%
16:00 +4°C° 0 mm 6 m/S 753 mmHg 94%
17:00 +4°C° 0 mm 6 m/S 753 mmHg 94%
18:00 +4°C° 0 mm 6 m/S 753 mmHg 94%
19:00 +4°C° 0 mm 6 m/S 753 mmHg 93%
20:00 +4°C° 0 mm 6 m/S 753 mmHg 93%
21:00 +4°C° 0 mm 6 m/S 753 mmHg 92%
22:00 +4°C° 0 mm 6 m/S 753 mmHg 92%
23:00 +4°C° 0 mm 6 m/S 752 mmHg 92%

24 Januar, Sonntag

Zeit Temperatur Niederschläge Wind Luftdruck Luftfeuchtigkeit
00:00 +4°C° 0 mm 7 m/S 752 mmHg 91%
01:00 +4°C° 0 mm 7 m/S 752 mmHg 90%
02:00 +4°C° 0 mm 7 m/S 752 mmHg 89%
03:00 +4°C° 0.3 mm 7 m/S 752 mmHg 90%
04:00 +4°C° 0.3 mm 7 m/S 752 mmHg 90%
05:00 +4°C° 0.3 mm 7 m/S 751 mmHg 91%
06:00 +4°C° 0.3 mm 7 m/S 751 mmHg 90%
07:00 +4°C° 0.3 mm 8 m/S 751 mmHg 89%
08:00 +4°C° 0.3 mm 8 m/S 751 mmHg 89%
09:00 +4°C° 0.2 mm 8 m/S 751 mmHg 87%
10:00 +5°C° 0.2 mm 8 m/S 751 mmHg 85%
11:00 +5°C° 0.2 mm 7 m/S 751 mmHg 83%
12:00 +5°C° 0.2 mm 7 m/S 750 mmHg 83%
13:00 +5°C° 0.2 mm 7 m/S 750 mmHg 83%
14:00 +6°C° 0.2 mm 7 m/S 750 mmHg 84%
15:00 +6°C° 0.3 mm 7 m/S 750 mmHg 82%
16:00 +5°C° 0.3 mm 7 m/S 750 mmHg 80%
17:00 +5°C° 0.3 mm 7 m/S 750 mmHg 79%
18:00 +5°C° 0 mm 7 m/S 750 mmHg 80%
19:00 +5°C° 0 mm 7 m/S 749 mmHg 82%
20:00 +5°C° 0 mm 7 m/S 749 mmHg 84%
21:00 +4°C° 0 mm 7 m/S 749 mmHg 85%
22:00 +4°C° 0 mm 6 m/S 749 mmHg 86%
23:00 +4°C° 0 mm 6 m/S 749 mmHg 86%
Mehr zeigen

Wir brauchen deine Erlaubnis

Meteoprog und unser Service Anbieter werden persönliche Daten aufbewahren, so wie Cookies, Geräte Bezeichnung oder ähnliche Technologien von deinem Gerät und Prozess, so wie Persönliche Daten Inhalte und Werbungen, genauso wie social Media und den Verkehr zu analysieren.

  • Aufbewahrung und/oder Zugang zu deiner Geräte Informationen.

    Cookies, Geräte Bezeichnung oder andere Informationen, können aufbewahrt oder Zugang zu deinem Gerät erhalten, für den Grund, der oben angegeben wird.

  • Personalisierte Werbung und Inhalte, Messungen, Einblick in das Publikum und Produkt Entwicklung.

    Werbungen und Inhalte können personalisiert werden, basierend auf ein Profil. Mehr Daten können besser personalisierte Werbungen und Inhalte hinzufügen. Werbung und Inhalte können gezeigt und gemessen werden. Einblicke über das Publikum, welche die Werbung gesehen haben und den Inhalt, können abgeleitet werden. So wie Daten können genutzt werden, um es zu verbessern oder die Benutzer Erfahrung zu verbessern das System und die Software.

Wenn du “Ich stimme zu” klickst, erlaubst du uns, die Cookies zu benutzen die Geräte Bezeichnung, den Web oder ähnliche Technologien zu benutzen. Deine Settings, können in deinem Gerät bei deinem Browser geändert werden.

Für den bestimmten Zweck, berechtigten Interessen beruhen darauf, mehr als auf den Inhalt. Du kannst mehr darüber in unseren Privaten und Cookie Politik lesen.